Orbital Elements
Epoch 2020 Feb. 1.0 TT = JDT 2458880.5
T 2020 Jan. 12.51992 TT MPCW
q 2.3449137 (2000.0) P Q
n 0.07061720 Peri. 277.69538 +0.82629290 -0.55767247
a 5.7968991 Node 116.23184 +0.54523907 +0.75679808
e 0.5954883 Incl. 5.05277 +0.14126004 +0.34096639
P 14.0
From 565 observations 1992-2019, mean residual 0".7. Nongravitational
parameters A1 = +6.89, A2 = -0.6585.
|